| time (UTC) | temp F | wind direction | speed MPH | gust MPH | rain 1hr in | rain 24hr in | rain mn in | humidity % | barometer mb |
| 20260509231506 | 89 | 301 | 1.0 | 11.0 | 0.00 | 0.00 | 0.00 | 10 | 1001.2 |
| 20260509230009 | 91 | 290 | 6.0 | 13.0 | 0.00 | 0.00 | 0.00 | 9 | 1001.3 |
| 20260509224503 | 91 | 283 | 4.0 | 13.0 | 0.00 | 0.00 | 0.00 | 8 | 1001.2 |
| 20260509223005 | 90 | 355 | 6.0 | 13.0 | 0.00 | 0.00 | 0.00 | 9 | 1001.4 |
| 20260509221501 | 91 | 354 | 8.0 | 16.0 | 0.00 | 0.00 | 0.00 | 10 | 1001.5 |
| 20260509214558 | 90 | 247 | 7.0 | 16.0 | 0.00 | 0.00 | 0.00 | 13 | 1001.6 |
| 20260509213056 | 90 | 259 | 0.0 | 17.0 | 0.00 | 0.00 | 0.00 | 14 | 1001.6 |
| 20260509211551 | 90 | 278 | 4.0 | 18.0 | 0.00 | 0.00 | 0.00 | 14 | 1001.9 |
| 20260509210048 | 90 | 301 | 7.0 | 12.0 | 0.00 | 0.00 | 0.00 | 13 | 1002.1 |
| 20260509204547 | 90 | 314 | 7.0 | 18.0 | 0.00 | 0.00 | 0.00 | 14 | 1002.3 |
| 20260509203045 | 89 | 330 | 6.0 | 18.0 | 0.00 | 0.00 | 0.00 | 17 | 1002.6 |
| 20260509201555 | 90 | 253 | 5.0 | 14.0 | 0.00 | 0.00 | 0.00 | 16 | 1002.8 |
| 20260509200054 | 89 | 252 | 9.0 | 18.0 | 0.00 | 0.00 | 0.00 | 16 | 1003.0 |
| 20260509194540 | 89 | 214 | 2.0 | 15.0 | 0.00 | 0.00 | 0.00 | 18 | 1003.0 |
| 20260509193044 | 88 | 234 | 5.0 | 11.0 | 0.00 | 0.00 | 0.00 | 20 | 1003.4 |
| 20260509191535 | 88 | 210 | 8.0 | 16.0 | 0.00 | 0.00 | 0.00 | 20 | 1003.6 |
| 20260509190035 | 87 | 228 | 8.0 | 13.0 | 0.00 | 0.00 | 0.00 | 20 | 1003.9 |
| 20260509184539 | 87 | 250 | 8.0 | 17.0 | 0.00 | 0.00 | 0.00 | 20 | 1004.2 |
| 20260509183028 | 86 | 199 | 4.0 | 16.0 | 0.00 | 0.00 | 0.00 | 22 | 1004.4 |
| 20260509181525 | 88 | 160 | 5.0 | 13.0 | 0.00 | 0.00 | 0.00 | 22 | 1004.8 |
| 20260509180020 | 86 | 141 | 5.0 | 10.0 | 0.00 | 0.00 | 0.00 | 24 | 1005.2 |
| 20260509174517 | 85 | 220 | 5.0 | 13.0 | 0.00 | 0.00 | 0.00 | 25 | 1005.3 |
| 20260509173017 | 85 | 172 | 8.0 | 14.0 | 0.00 | 0.00 | 0.00 | 25 | 1005.6 |
| 20260509171521 | 84 | 182 | 5.0 | 12.0 | 0.00 | 0.00 | 0.00 | 28 | 1005.7 |
| 20260509170007 | 82 | 174 | 3.0 | 12.0 | 0.00 | 0.00 | 0.00 | 31 | 1006.0 |
| 20260509164504 | 81 | 110 | 6.0 | 11.0 | 0.00 | 0.00 | 0.00 | 33 | 1006.2 |
| 20260509163003 | 81 | 176 | 6.0 | 12.0 | 0.00 | 0.00 | 0.00 | 33 | 1006.5 |
| 20260509161559 | 79 | 172 | 7.0 | 14.0 | 0.00 | 0.00 | 0.00 | 34 | 1006.7 |
| 20260509160057 | 79 | 139 | 4.0 | 14.0 | 0.00 | 0.00 | 0.00 | 37 | 1006.7 |
| 20260509154553 | 77 | 115 | 3.0 | 10.0 | 0.00 | 0.00 | 0.00 | 40 | 1007.0 |
| 20260509153057 | 76 | 110 | 4.0 | 8.0 | 0.00 | 0.00 | 0.00 | 43 | 1007.2 |
| 20260509151518 | 75 | 176 | 3.0 | 7.0 | 0.00 | 0.00 | 0.00 | 45 | 1007.4 |
| 20260509150127 | 74 | 108 | 3.0 | 8.0 | 0.00 | 0.00 | 0.00 | 46 | 1007.5 |
| 20260509144546 | 72 | 198 | 1.0 | 6.0 | 0.00 | 0.00 | 0.00 | 48 | 1007.7 |
| 20260509143112 | 71 | 207 | 1.0 | 3.0 | 0.00 | 0.00 | 0.00 | 51 | 1007.7 |
| 20260509141532 | 69 | 60 | 0.0 | 3.0 | 0.00 | 0.00 | 0.00 | 56 | 1007.9 |
| 20260509140113 | 67 | 92 | 1.0 | 4.0 | 0.00 | 0.00 | 0.00 | 57 | 1007.9 |
| 20260509134542 | 66 | 94 | 0.0 | 0.0 | 0.00 | 0.00 | 0.00 | 52 | 1008.1 |
| 20260509133005 | 63 | 87 | 0.0 | 0.0 | 0.00 | 0.00 | 0.00 | 53 | 1008.2 |
| 20260509131550 | 63 | 74 | 0.0 | 1.0 | 0.00 | 0.00 | 0.00 | 49 | 1008.3 |
| 20260509130009 | 59 | 82 | 0.0 | 0.0 | 0.00 | 0.00 | 0.00 | 53 | 1008.2 |
| 20260509124620 | 55 | 81 | 0.0 | 0.0 | 0.00 | 0.00 | 0.00 | 57 | 1008.2 |
| 20260509123028 | 51 | 82 | 0.0 | 0.0 | 0.00 | 0.00 | 0.00 | 63 | 1008.1 |
| 20260509121628 | 48 | 81 | 0.0 | 0.0 | 0.00 | 0.00 | 0.00 | 65 | 1008.0 |
| 20260509120044 | 47 | 82 | 0.0 | 0.0 | 0.00 | 0.00 | 0.00 | 64 | 1007.9 |
| 20260509114632 | 48 | 81 | 0.0 | 0.0 | 0.00 | 0.00 | 0.00 | 63 | 1007.9 |
| 20260509113053 | 50 | 82 | 0.0 | 0.0 | 0.00 | 0.00 | 0.00 | 62 | 1008.0 |
| 20260509111511 | 49 | 82 | 0.0 | 0.0 | 0.00 | 0.00 | 0.00 | 64 | 1008.1 |
| 20260509110107 | 50 | 82 | 0.0 | 0.0 | 0.00 | 0.00 | 0.00 | 61 | 1008.1 |
| 20260509104536 | 51 | 82 | 0.0 | 0.0 | 0.00 | 0.00 | 0.00 | 58 | 1008.3 |
| 20260509103130 | 52 | 82 | 0.0 | 0.0 | 0.00 | 0.00 | 0.00 | 59 | 1008.2 |
| 20260509101553 | 53 | 81 | 0.0 | 0.0 | 0.00 | 0.00 | 0.00 | 56 | 1008.3 |
| 20260509100053 | 54 | 81 | 0.0 | 0.0 | 0.00 | 0.00 | 0.00 | 54 | 1008.3 |
| 20260509094540 | 56 | 81 | 0.0 | 0.0 | 0.00 | 0.00 | 0.00 | 51 | 1008.4 |
| 20260509093039 | 57 | 82 | 0.0 | 0.0 | 0.00 | 0.00 | 0.00 | 50 | 1008.3 |
| 20260509091534 | 58 | 74 | 0.0 | 2.0 | 0.00 | 0.00 | 0.00 | 48 | 1008.2 |
| 20260509090033 | 59 | 86 | 1.0 | 5.0 | 0.00 | 0.00 | 0.00 | 47 | 1008.1 |
| 20260509084533 | 59 | 42 | 2.0 | 6.0 | 0.00 | 0.00 | 0.00 | 46 | 1008.2 |
| 20260509083031 | 59 | 61 | 2.0 | 7.0 | 0.00 | 0.00 | 0.00 | 47 | 1008.1 |
| 20260509081540 | 59 | 86 | 0.0 | 4.0 | 0.00 | 0.00 | 0.00 | 46 | 1008.0 |
| 20260509080026 | 60 | 74 | 0.0 | 2.0 | 0.00 | 0.00 | 0.00 | 45 | 1007.9 |
| 20260509074522 | 61 | 70 | 2.0 | 7.0 | 0.00 | 0.00 | 0.00 | 44 | 1008.1 |
| 20260509073018 | 62 | 57 | 3.0 | 9.0 | 0.00 | 0.00 | 0.00 | 43 | 1008.1 |
| 20260509071520 | 62 | 57 | 4.0 | 10.0 | 0.00 | 0.00 | 0.00 | 42 | 1008.1 |
| 20260509070016 | 62 | 84 | 5.0 | 9.0 | 0.00 | 0.00 | 0.00 | 43 | 1008.1 |
| 20260509064513 | 63 | 49 | 6.0 | 11.0 | 0.00 | 0.00 | 0.00 | 42 | 1007.8 |
| 20260509063011 | 63 | 63 | 8.0 | 13.0 | 0.00 | 0.00 | 0.00 | 41 | 1007.5 |
| 20260509061512 | 64 | 41 | 7.0 | 12.0 | 0.00 | 0.00 | 0.00 | 40 | 1007.4 |
| 20260509060011 | 62 | 32 | 1.0 | 5.0 | 0.00 | 0.00 | 0.00 | 41 | 1007.4 |
| 20260509054508 | 62 | 39 | 2.0 | 4.0 | 0.00 | 0.00 | 0.00 | 41 | 1007.9 |
| 20260509053006 | 62 | 36 | 3.0 | 5.0 | 0.00 | 0.00 | 0.00 | 40 | 1007.7 |
| 20260509051502 | 62 | 58 | 1.0 | 3.0 | 0.00 | 0.00 | 0.00 | 39 | 1007.8 |
| 20260509050102 | 63 | 44 | 0.0 | 0.0 | 0.00 | 0.00 | 0.00 | 39 | 1007.9 |
| 20260509044559 | 63 | 72 | 0.0 | 0.0 | 0.00 | 0.00 | 0.00 | 38 | 1007.8 |
| 20260509043104 | 64 | 51 | 0.0 | 0.0 | 0.00 | 0.00 | 0.00 | 37 | 1007.8 |
| 20260509041558 | 65 | 49 | 0.0 | 0.0 | 0.00 | 0.00 | 0.00 | 36 | 1007.8 |
| 20260509040058 | 66 | 75 | 0.0 | 4.0 | 0.00 | 0.00 | 0.00 | 35 | 1007.8 |
| 20260509034603 | 66 | 44 | 2.0 | 4.0 | 0.00 | 0.00 | 0.00 | 35 | 1007.6 |
| 20260509033056 | 66 | 119 | 0.0 | 3.0 | 0.00 | 0.00 | 0.00 | 34 | 1007.6 |
| 20260509031602 | 67 | 48 | 0.0 | 3.0 | 0.00 | 0.00 | 0.00 | 32 | 1007.3 |
| 20260509030055 | 68 | 77 | 0.0 | 0.0 | 0.00 | 0.00 | 0.00 | 31 | 1007.2 |
| 20260509024555 | 69 | 53 | 0.0 | 0.0 | 0.00 | 0.00 | 0.00 | 31 | 1006.9 |
| 20260509023100 | 70 | 41 | 0.0 | 0.0 | 0.00 | 0.00 | 0.00 | 30 | 1006.7 |
| 20260509021554 | 72 | 52 | 0.0 | 3.0 | 0.00 | 0.00 | 0.00 | 29 | 1006.3 |
| 20260509020056 | 72 | 55 | 0.0 | 1.0 | 0.00 | 0.00 | 0.00 | 29 | 1006.2 |
| 20260509014552 | 74 | 49 | 0.0 | 3.0 | 0.00 | 0.00 | 0.00 | 28 | 1006.0 |
| 20260509013113 | 76 | 45 | 0.0 | 3.0 | 0.00 | 0.00 | 0.00 | 26 | 1005.9 |
| 20260509011551 | 77 | 8 | 3.0 | 10.0 | 0.00 | 0.00 | 0.00 | 25 | 1005.8 |
| 20260509010050 | 78 | 39 | 3.0 | 7.0 | 0.00 | 0.00 | 0.00 | 24 | 1005.6 |
| 20260509004549 | 79 | 47 | 4.0 | 8.0 | 0.00 | 0.00 | 0.00 | 23 | 1005.5 |
| 20260509003050 | 80 | 28 | 2.0 | 7.0 | 0.00 | 0.00 | 0.00 | 23 | 1005.5 |
| 20260509001549 | 80 | 37 | 0.0 | 11.0 | 0.00 | 0.00 | 0.00 | 23 | 1005.5 |
| 20260509000050 | 81 | 33 | 1.0 | 10.0 | 0.00 | 0.00 | 0.00 | 22 | 1005.5 |
| 20260508234547 | 81 | 27 | 4.0 | 13.0 | 0.00 | 0.00 | 0.00 | 23 | 1005.4 |
| 20260508233047 | 81 | 23 | 5.0 | 12.0 | 0.00 | 0.00 | 0.00 | 22 | 1005.4 |